Theta_e
313 313 313 313 313 312 313 313 313 313 313 313 313 313 313 313 312 307 301 305 309 316 317 312 306 309 309 301 308 305 299 294 296 295 297 301 300 306 309 308 310 312 312 320 346
313 313 313 313 313 312 312 312 313 313 313 314 314 313 312 312 306 301 310 313 315 319 311 304 302 304 304 301 302 303 298 298 302 301 299 302 301 302 303 304 306 308 312 316 342
313 312 312 312 312 312 312 312 312 313 313 313 313 313 312 311 299 308 313 317 317 319 312 306 305 302 299 301 299 300 297 302 302 304 303 302 301 303 302 301 305 306 309 312 315
312 312 312 312 312 312 312 313 313 313 313 313 312 313 312 306 288 307 314 319 318 312 307 305 305 300 296 295 300 294 298 302 304 305 303 302 304 302 303 304 308 309 311 313 314
312 312 312 312 311 312 312 313 313 314 313 312 312 312 307 298 299 306 313 310 309 306 303 305 303 300 295 297 298 297 298 299 301 303 305 306 304 304 305 309 310 311 312 313 315
311 311 311 311 311 312 312 313 312 313 313 312 312 311 303 295 306 308 307 307 307 305 302 304 303 303 298 296 296 298 298 299 301 300 301 301 303 304 306 310 311 312 312 314 316
312 311 311 310 311 312 313 313 313 313 313 313 314 308 301 300 307 309 308 307 307 306 302 304 306 302 300 296 299 298 295 297 298 300 299 301 296 298 305 310 310 311 313 314 315
312 312 311 310 311 312 312 313 312 314 315 315 314 307 299 308 310 309 309 308 308 308 306 305 304 303 300 302 298 295 295 290 296 298 299 299 291 299 304 304 305 307 310 312 314
312 311 310 311 310 312 312 311 313 315 316 315 308 303 297 310 304 307 309 304 305 305 305 306 302 298 297 293 290 292 286 289 292 298 298 297 294 300 303 304 304 306 308 310 312
311 311 310 310 310 311 311 310 317 315 313 311 308 299 302 299 303 305 308 307 304 303 300 300 298 294 293 290 282 284 287 289 290 295 296 295 295 300 304 303 305 306 308 309 311
311 310 310 309 309 310 309 304 302 299 305 298 298 297 300 304 305 304 306 304 304 301 294 297 292 288 291 292 291 290 288 288 293 297 294 294 295 298 301 303 303 305 306 309 311
310 310 310 309 310 309 306 300 301 301 294 301 300 300 302 304 297 302 306 299 298 294 296 293 289 294 295 294 291 290 288 287 292 296 295 294 294 298 301 302 303 305 307 308 311
310 310 310 309 309 304 301 301 305 304 295 297 300 299 299 301 297 298 302 300 296 293 293 290 293 295 293 291 289 290 288 287 287 292 295 293 291 295 300 304 305 305 307 310 311
309 309 309 308 303 302 301 304 305 305 290 291 294 298 300 301 296 303 303 301 296 292 293 292 296 293 292 290 291 286 292 290 289 288 284 293 284 294 298 300 303 305 307 308 311
309 309 309 307 303 302 302 306 304 303 279 293 294 304 302 296 297 298 307 301 293 293 293 290 292 291 290 291 293 288 292 290 290 288 288 288 286 291 298 296 300 304 307 309 312
308 308 308 304 304 305 306 304 303 289 278 289 295 294 293 295 295 298 298 302 301 295 295 294 298 295 293 294 294 294 290 290 290 287 281 286 287 288 294 297 300 304 307 309 310
307 307 306 305 300 305 305 301 288 282 291 288 290 293 291 291 293 294 293 292 290 286 285 290 292 296 296 291 293 292 288 280 278 278 278 289 286 289 297 301 302 304 306 309 311
306 304 305 307 305 304 300 294 281 286 287 293 292 291 288 292 292 292 291 288 294 291 287 282 283 293 296 292 289 290 288 281 274 276 279 288 283 289 297 302 304 305 308 309 310
304 301 304 303 303 303 298 287 285 288 291 289 290 287 287 290 290 290 289 288 292 292 286 284 283 293 296 296 293 289 285 291 284 285 281 284 288 295 298 299 303 304 306 308 310
299 298 301 303 302 302 294 286 288 293 293 291 284 288 285 287 287 288 287 292 292 295 295 289 283 291 294 296 296 292 294 283 284 277 276 282 283 286 293 296 300 303 306 308 310
299 295 301 302 303 296 288 287 289 294 294 289 287 286 288 286 288 286 287 292 294 293 293 288 287 287 290 289 288 289 288 289 287 286 280 279 283 294 296 300 300 303 307 308 307
296 290 302 301 290 290 286 288 292 292 294 291 292 291 288 289 288 286 286 290 296 294 288 291 288 283 286 293 295 292 289 290 284 282 286 286 287 301 298 302 307 305 307 309 307
292 292 300 300 285 285 288 287 290 290 290 289 289 291 292 287 284 288 289 295 295 293 288 290 286 282 284 289 292 289 290 291 292 291 285 283 289 307 310 305 309 311 313 308 315
292 287 292 293 291 286 283 286 287 291 290 291 290 292 290 287 289 287 287 292 295 293 297 293 286 284 281 285 289 287 290 291 290 286 286 287 290 298 305 308 313 315 314 318 321
291 287 289 284 287 287 286 286 285 284 290 291 289 290 288 284 285 286 289 290 292 295 293 287 284 287 288 289 288 289 288 291 290 290 286 287 287 297 302 307 314 315 318 319 320
289 288 290 287 289 287 286 286 285 286 286 287 287 290 289 285 286 283 287 287 287 291 287 288 285 288 286 289 289 288 289 289 291 291 291 292 290 302 306 308 317 317 317 316 315
294 294 290 287 287 285 286 286 285 288 289 291 290 288 287 291 292 292 293 292 290 285 285 285 286 285 282 289 288 283 289 290 292 294 294 290 295 301 302 306 311 314 314 313 311
Wind_Speed
19 19 19 19 19 19 18 18 17 16 15 15 15 16 16 17 16 7 3 3 6 6 0 5 1 1 4 7 6 4 11 17 21 18 13 8 12 14 5 14 10 8 25 2 12
20 20 20 20 20 20 19 18 16 15 14 14 14 14 15 15 11 5 4 9 11 9 6 6 5 2 4 5 8 13 15 21 7 14 13 16 10 8 9 13 19 15 10 5 12
21 21 21 21 21 20 19 17 15 14 14 13 13 13 12 11 3 1 5 11 11 9 7 4 3 2 8 4 10 12 21 16 9 15 15 17 13 7 12 16 12 15 12 4 3
22 22 22 22 22 20 19 17 16 15 14 13 11 10 9 2 3 6 2 7 4 4 4 3 4 6 5 12 7 14 15 20 9 18 8 16 10 10 19 18 8 13 8 10 11
22 23 23 23 23 21 19 17 17 15 13 10 7 6 3 2 4 4 3 3 4 2 3 4 6 5 9 6 11 21 17 15 15 24 16 17 18 14 15 12 16 18 17 15 14
23 23 24 25 24 23 20 18 17 17 13 9 6 5 0 2 3 4 3 4 6 4 5 8 7 7 5 7 12 7 11 16 23 19 11 21 23 18 11 20 20 19 21 20 16
23 24 24 25 24 23 22 16 16 17 14 9 9 4 3 6 3 3 5 4 4 6 4 9 7 9 5 7 8 7 12 15 18 15 19 13 23 32 18 20 14 14 14 14 14
23 23 25 25 24 23 23 20 20 14 6 8 11 3 8 3 4 9 4 6 6 8 9 3 5 10 8 7 7 9 10 12 9 18 11 18 33 8 19 24 27 27 24 20 20
23 23 25 26 25 24 23 22 14 3 9 11 6 3 7 4 5 3 6 6 3 4 4 1 6 5 5 11 11 11 14 13 11 12 17 22 20 14 16 16 22 21 22 20 20
25 25 24 26 25 23 22 14 9 10 7 4 2 4 5 4 5 7 6 9 6 3 4 7 6 7 7 9 16 14 16 13 11 3 16 22 22 11 7 5 16 15 16 17 18
27 26 26 26 24 20 11 1 3 2 5 9 10 7 14 5 5 9 13 7 4 5 8 6 8 14 19 20 19 18 17 18 10 9 9 13 15 18 19 18 17 12 16 14 13
29 28 27 26 22 18 1 2 0 4 11 14 16 14 15 7 9 16 1 4 5 13 6 6 17 19 18 19 20 20 20 21 18 17 12 15 13 14 13 17 20 18 15 16 16
27 27 27 27 22 1 2 2 4 1 6 7 5 4 1 4 15 12 1 6 10 15 15 16 17 7 11 18 19 21 22 19 17 14 17 16 23 20 17 17 18 19 18 17 15
28 28 26 25 2 3 2 2 7 2 4 4 3 1 2 15 6 6 9 6 4 12 11 13 13 12 16 18 20 21 17 17 16 14 14 8 9 9 16 17 18 17 18 19 14
29 29 26 7 3 1 3 9 2 3 6 9 3 1 17 4 15 1 2 2 15 15 7 8 9 13 13 19 17 16 12 17 17 14 14 16 9 14 9 19 21 20 21 20 14
31 29 23 1 1 3 6 4 2 2 4 6 7 17 22 20 3 5 5 2 5 7 9 21 12 10 14 6 12 8 9 15 14 12 13 18 16 11 13 19 22 21 17 18 14
31 29 9 1 6 4 5 2 3 2 9 5 11 16 24 6 12 9 13 12 7 5 3 11 7 6 13 8 4 13 9 6 8 9 10 13 14 18 11 11 10 18 16 16 14
31 17 1 3 10 5 2 1 2 3 4 13 13 21 5 10 8 10 11 14 7 7 5 4 2 7 10 13 6 18 14 5 7 9 14 12 12 19 26 20 11 7 16 15 15
21 4 1 8 6 1 1 2 3 4 8 11 19 5 4 7 9 12 14 10 4 5 4 4 6 3 7 8 13 10 14 13 7 11 10 11 23 15 12 17 14 15 12 16 18
6 4 4 16 5 1 2 3 3 5 9 8 6 3 14 18 12 8 9 3 4 5 7 3 8 4 4 3 12 10 11 7 5 6 11 12 25 15 15 20 20 14 13 15 17
3 3 8 15 1 5 4 4 5 5 8 6 6 8 10 10 4 12 7 10 3 3 2 3 6 2 2 6 12 9 12 8 7 7 9 10 10 17 16 5 20 19 15 10 13
4 2 9 9 5 3 3 8 6 6 7 6 8 10 10 13 8 9 8 7 1 4 4 6 4 6 9 1 8 15 14 15 7 12 7 8 3 2 21 14 9 16 15 7 13
4 4 5 5 5 4 6 4 4 6 12 5 6 5 10 8 9 9 13 4 7 6 5 2 4 5 4 4 7 5 13 17 10 5 12 8 2 8 5 12 9 10 7 11 18
3 5 3 5 2 3 7 4 7 10 10 7 12 10 10 9 14 10 17 10 6 10 17 8 6 11 12 2 2 4 12 20 19 8 9 9 12 9 7 8 6 5 10 16 20
5 3 2 6 3 8 4 4 7 11 5 8 5 8 17 8 18 10 17 22 12 12 2 3 6 11 18 18 12 9 4 16 18 18 9 2 12 11 13 10 4 10 18 21 19
3 5 3 5 7 8 2 2 8 11 6 8 7 21 22 12 18 27 19 21 6 2 2 2 3 2 8 13 14 10 11 10 17 16 10 9 10 6 14 13 10 16 19 20 19
1 1 2 3 4 5 2 6 9 15 8 15 18 18 21 18 20 26 22 19 10 5 3 3 3 3 4 7 8 7 15 14 11 13 10 8 3 7 6 10 8 14 16 18 19
Wind_Direction
352 349 347 344 340 335 332 330 328 327 325 323 324 328 325 326 323 312 253 211 194 266 206 319 265 203 168 225 208 167 230 235 224 223 217 199 211 207 206 221 205 226 242 97 144
350 347 344 341 337 333 330 329 327 326 322 321 321 320 324 329 321 286 235 224 229 258 348 4 4 205 208 224 209 207 228 234 241 227 226 222 199 174 205 215 227 226 241 155 148
346 343 341 340 336 331 327 324 322 320 318 316 312 314 318 326 277 56 197 205 218 238 301 268 192 202 233 245 213 224 241 234 228 235 240 247 229 230 239 237 211 225 227 259 291
344 341 339 336 334 328 325 323 318 314 312 312 307 303 314 293 44 185 181 190 206 290 275 160 171 174 220 233 233 259 251 255 262 237 238 245 245 224 234 235 228 248 267 287 281
341 340 337 335 334 328 324 323 317 310 306 300 291 287 303 255 246 184 262 312 299 212 197 176 199 225 228 213 256 249 260 274 252 252 248 254 247 252 247 237 244 263 275 270 270
339 340 338 336 333 326 323 323 318 310 301 279 226 191 319 259 131 195 233 263 227 212 200 186 209 226 266 246 229 277 283 268 258 257 254 253 259 245 240 236 240 249 257 265 266
336 338 337 335 331 325 321 325 316 303 290 253 198 156 176 240 202 220 287 233 186 202 235 221 216 200 205 248 256 274 281 279 249 249 242 245 262 238 242 251 250 231 241 255 255
336 334 334 334 330 325 323 324 314 302 262 189 173 171 253 203 257 277 210 266 226 234 238 245 213 229 230 251 277 269 262 261 247 223 238 204 251 241 226 220 238 247 254 254 261
335 332 333 333 331 326 324 324 318 149 132 144 151 229 264 309 262 325 185 263 198 174 197 137 165 220 167 228 257 242 260 255 278 244 216 214 249 247 241 220 233 233 236 242 252
336 332 332 333 330 326 330 323 102 102 124 170 145 245 252 315 314 316 275 255 256 173 149 189 203 224 215 206 241 244 238 241 254 28 224 231 240 239 226 261 232 228 232 236 239
335 332 331 332 329 329 336 197 264 184 200 258 264 267 283 289 283 278 292 262 229 217 254 195 225 235 237 228 246 258 256 252 223 228 312 252 257 250 257 262 253 240 238 235 242
332 332 331 331 326 325 213 311 229 335 295 263 251 252 265 276 287 306 200 228 251 249 269 240 249 257 258 241 238 243 249 250 257 266 263 274 270 267 251 251 245 244 240 240 241
332 331 331 329 323 179 316 271 353 306 286 300 231 240 180 185 307 295 251 295 260 264 263 261 259 265 239 234 232 234 237 241 243 242 261 270 279 255 240 237 246 237 238 240 231
331 332 333 329 265 342 342 360 335 254 297 292 334 88 105 332 290 258 286 237 241 276 275 270 260 249 249 237 223 236 230 237 242 234 244 230 274 211 217 217 224 231 228 231 222
331 335 336 330 337 334 8 326 340 221 300 350 317 341 336 315 298 350 135 236 282 270 261 263 277 270 251 236 223 244 231 223 231 251 249 233 252 253 254 214 216 217 220 225 219
332 335 340 30 194 277 335 324 260 245 269 334 330 332 333 332 297 292 280 228 274 271 246 261 275 263 237 249 230 241 239 222 227 229 248 230 227 234 221 215 216 218 214 221 217
333 329 331 288 337 329 322 188 294 235 343 347 328 331 323 306 327 333 312 300 279 278 296 310 238 222 226 246 201 177 178 185 206 210 246 203 221 237 202 238 257 221 204 208 210
331 329 199 246 317 301 184 240 259 32 346 323 321 314 295 346 327 317 303 312 245 218 290 307 288 199 189 216 201 196 194 202 200 198 222 219 228 233 232 247 270 305 215 198 203
330 346 342 343 335 216 299 8 338 1 345 322 318 299 312 309 319 313 318 298 269 164 256 281 251 242 249 256 221 181 210 221 305 233 221 209 238 264 247 232 240 241 227 203 199
336 329 358 339 337 20 56 342 305 343 339 328 291 291 314 321 322 342 310 292 305 219 224 306 278 247 54 211 245 236 169 181 216 225 225 203 234 224 193 217 226 235 227 202 193
3 0 348 344 322 42 59 315 300 316 9 322 290 293 297 315 261 319 269 294 302 41 302 245 235 213 237 208 202 183 206 209 165 258 230 229 235 210 218 234 212 229 231 195 189
351 338 346 337 46 30 2 318 301 305 336 288 270 270 287 310 279 297 246 232 226 266 258 205 279 253 257 282 193 221 220 206 218 204 244 281 312 309 205 202 216 228 214 142 167
352 296 349 350 55 356 330 303 279 321 330 307 283 274 301 301 311 271 286 263 293 270 233 228 238 284 244 161 201 198 211 226 240 270 238 256 14 4 209 187 214 213 177 145 151
351 338 11 45 64 31 354 328 329 324 307 314 283 285 289 295 283 276 280 302 304 272 249 227 210 224 256 333 88 252 193 208 219 230 225 242 312 352 4 175 191 174 153 144 149
10 54 21 338 4 338 314 294 330 347 306 306 279 271 317 287 297 260 297 300 299 302 296 217 247 220 246 261 253 259 231 221 205 223 229 276 262 347 329 319 228 148 146 148 135
13 356 353 292 298 318 347 346 315 327 273 296 254 306 313 285 278 293 306 302 276 317 273 234 278 290 263 260 233 220 239 237 223 220 242 232 262 313 308 281 179 148 144 136 128
52 232 301 290 318 305 351 332 301 320 275 247 285 302 302 311 308 293 286 280 253 272 277 264 284 290 279 295 160 220 219 203 195 206 216 217 186 14 343 47 91 117 121 124 123